Arrow Post — CG2882 — position and weather

sailwx.info

Track history (hours):
 
Tides and Currents Weather Stations Pressure Air Temp Water Temp Dewpoint Dewpoint Depression Visibility Wind Speed Wind Dir Waves Ship Positions

Arrow Post

Last reported at 2015-Apr-01 18:29 UTC. Time now 2015-Jul-30 16:13 UTC.
Position N 48°39' W 123°27'.
Warning: this ship's position is months out of date.

Length 29 m; draft 3.5 m.

Type: SAR. MMSI: 316001090.

Date/timePositionNaut miles runAvg speedWind from/ knotsBaromVisibWave heightAir tempDewpointWater temp
2015-Apr-01 18:29N 48°39' W 123°27'0 0.0
2015-Apr-01 17:29N 48°39' W 123°27'0 0.0
2015-Apr-01 16:28N 48°39' W 123°27'0 0.0
2015-Apr-01 15:23N 48°39' W 123°27'0 0.0
2015-Apr-01 13:05N 48°39' W 123°27'0 0.0
2015-Apr-01 12:29N 48°39' W 123°27'0 0.0
2015-Apr-01 09:11N 48°39' W 123°27'0 0.0
2015-Apr-01 08:29N 48°39' W 123°27'0 0.0
2015-Apr-01 07:23N 48°39' W 123°27'0 0.0
2015-Apr-01 06:11N 48°39' W 123°27'0 0.0
2015-Apr-01 05:17N 48°39' W 123°27'0 0.0
2015-Apr-01 04:05N 48°39' W 123°27'0 0.0
2015-Apr-01 02:23N 48°39' W 123°27'0 0.0
2015-Apr-01 01:29N 48°39' W 123°27'0 0.2
2015-Apr-01 00:32N 48°39' W 123°27'9 8.4
2015-Mar-31 23:31N 48°47' W 123°33'9 9.6
2015-Mar-31 22:33N 48°55' W 123°40'11 9.9
2015-Mar-31 21:26N 49°05' W 123°46'910.0
2015-Mar-31 20:32N 49°12' W 123°55'1 0.8
2015-Mar-31 19:33N 49°13' W 123°56'1010.0
2015-Mar-31 18:32N 49°18' W 124°09'20 9.9
2015-Mar-31 16:32N 49°31' W 124°32'122 5.7
2015-Mar-30 19:03N 50°43' W 127°06'610.5
2015-Mar-30 18:29N 50°45' W 127°15'9 9.0
2015-Mar-30 17:32N 50°44' W 127°28'1 0.8
2015-Mar-30 16:33N 50°43' W 127°29'4 3.7
2015-Mar-30 15:33N 50°47' W 127°31'10 9.7
2015-Mar-30 14:33N 50°50' W 127°45'4 3.5
2015-Mar-30 13:16N 50°51' W 127°52'0 0.0
2015-Mar-30 12:16N 50°51' W 127°52'0 0.1
2015-Mar-30 11:28N 50°51' W 127°52'6 6.2
2015-Mar-30 10:33N 50°55' W 127°45'9 8.8
2015-Mar-30 09:31N 51°04' W 127°48'  
Track history (hours):
 
Tides and Currents Weather Stations Pressure Air Temp Water Temp Dewpoint Dewpoint Depression Visibility Wind Speed Wind Dir Waves Ship Positions

Arrow Post

Last reported at 2015-Apr-01 18:29 UTC. Time now 2015-Jul-30 16:13 UTC.
Position N 48°39' W 123°27'.
Warning: this ship's position is months out of date.

Length 29 m; draft 3.5 m.

Type: SAR. MMSI: 316001090.

Date/timePositionNaut miles runAvg speedWind from/ knotsBaromVisibWave heightAir tempDewpointWater temp
2015-Apr-01 18:29N 48°39' W 123°27'0 0.0
2015-Apr-01 17:29N 48°39' W 123°27'0 0.0
2015-Apr-01 16:28N 48°39' W 123°27'0 0.0
2015-Apr-01 15:23N 48°39' W 123°27'0 0.0
2015-Apr-01 13:05N 48°39' W 123°27'0 0.0
2015-Apr-01 12:29N 48°39' W 123°27'0 0.0
2015-Apr-01 09:11N 48°39' W 123°27'0 0.0
2015-Apr-01 08:29N 48°39' W 123°27'0 0.0
2015-Apr-01 07:23N 48°39' W 123°27'0 0.0
2015-Apr-01 06:11N 48°39' W 123°27'0 0.0
2015-Apr-01 05:17N 48°39' W 123°27'0 0.0
2015-Apr-01 04:05N 48°39' W 123°27'0 0.0
2015-Apr-01 02:23N 48°39' W 123°27'0 0.0
2015-Apr-01 01:29N 48°39' W 123°27'0 0.2
2015-Apr-01 00:32N 48°39' W 123°27'9 8.4
2015-Mar-31 23:31N 48°47' W 123°33'9 9.6
2015-Mar-31 22:33N 48°55' W 123°40'11 9.9
2015-Mar-31 21:26N 49°05' W 123°46'910.0
2015-Mar-31 20:32N 49°12' W 123°55'1 0.8
2015-Mar-31 19:33N 49°13' W 123°56'1010.0
2015-Mar-31 18:32N 49°18' W 124°09'20 9.9
2015-Mar-31 16:32N 49°31' W 124°32'122 5.7
2015-Mar-30 19:03N 50°43' W 127°06'610.5
2015-Mar-30 18:29N 50°45' W 127°15'9 9.0
2015-Mar-30 17:32N 50°44' W 127°28'1 0.8
2015-Mar-30 16:33N 50°43' W 127°29'4 3.7
2015-Mar-30 15:33N 50°47' W 127°31'10 9.7
2015-Mar-30 14:33N 50°50' W 127°45'4 3.5
2015-Mar-30 13:16N 50°51' W 127°52'0 0.0
2015-Mar-30 12:16N 50°51' W 127°52'0 0.1
2015-Mar-30 11:28N 50°51' W 127°52'6 6.2
2015-Mar-30 10:33N 50°55' W 127°45'9 8.8
2015-Mar-30 09:31N 51°04' W 127°48'  

Dump ship's entire track history